[[{"header":{"parameterUnit":"m.s-1","parameterCategory":1,"la1":30.2991,"la2":30.254,"lo1":-89.0895,"lo2":-89.0444,"dy":0.0017,"dx":0.0017,"nx":28,"ny":28,"refTime":"2024-04-07T03:00:00:Z","depth":0,"parameterNumber":2,"parameterNumberName":"U-component_of_WINDS"},"data":[0,0,0,0,0,0,0,0,0,0,0,0,0,0,0,0,0,0,0,0,0,0,0,0,0,0,0,0,0,0,0,0,0,0,0,0,0,0,0,0,0,0,0,0,0,0,0,0,0,0,0,0,0,0,0,0,0,0,-1.6594,-1.6594,0,-1.6616,-1.6616,-1.6616,-1.6612,-1.6611,-1.6611,-1.6611,-1.6633,-1.6634,-1.6635,0,0,0,0,0,0,0,0,0,0,0,0,0,-1.655,-1.6551,-1.6594,-1.6594,-1.6594,-1.6616,-1.6616,-1.6616,-1.6612,-1.6611,-1.6611,-1.6611,-1.6633,-1.6634,-1.6635,0,0,0,0,0,0,0,0,0,0,0,0,0,-1.657,-1.6551,-1.6594,-1.6595,-1.6595,-1.6616,-1.6616,-1.6616,-1.6612,-1.6611,-1.6611,-1.661,-1.6633,-1.6634,-1.6635,-1.6656,0,0,-1.664,-1.6641,0,0,0,0,0,0,0,0,-1.6569,-1.6572,-1.6594,-1.6595,-1.6595,-1.661,-1.6609,-1.663,-1.6612,-1.6606,-1.6611,-1.661,-1.6626,-1.6628,-1.6634,-1.6657,-1.6658,-1.664,-1.6641,-1.6642,-1.6642,0,0,0,0,0,0,0,-1.6568,-1.6571,-1.6602,-1.6595,-1.6595,-1.6595,-1.6597,-1.6613,-1.6619,-1.6606,-1.6606,-1.6609,-1.6626,-1.6632,-1.6634,-1.6659,-1.664,-1.6641,-1.6642,-1.6643,-1.6703,-1.6703,0,0,0,0,0,0,-1.6566,-1.657,-1.6602,-1.6603,-1.658,-1.6596,-1.6598,-1.6606,-1.6619,-1.662,-1.6609,-1.6608,-1.663,-1.6632,-1.6635,-1.6661,-1.6642,-1.6643,-1.6644,-1.6702,-1.6703,-1.6703,0,0,0,0,0,0,-1.6565,-1.6569,-1.6601,-1.6586,-1.659,-1.6597,-1.6606,-1.6607,-1.6613,-1.6621,-1.6622,-1.6614,-1.663,-1.6633,-1.6651,-1.6661,-1.6644,-1.6645,-1.6701,-1.6702,-1.6703,-1.6712,0,0,0,0,0,0,-1.6564,-1.6568,-1.6576,-1.6587,-1.6591,-1.6616,-1.6607,-1.6608,-1.6615,-1.6614,-1.6626,-1.6627,-1.6629,-1.6649,-1.6653,-1.6663,-1.6646,-1.67,-1.6702,-1.6703,-1.6711,-1.6713,-1.6715,0,0,0,0,0,-1.6562,-1.6577,-1.6576,-1.658,-1.66,-1.6617,-1.662,-1.6622,-1.6616,-1.6624,-1.663,-1.6627,-1.666,-1.6651,-1.6655,-1.6666,-1.6699,-1.6701,-1.6703,-1.671,-1.6713,-1.6715,0,0,0,0,0,0,-1.6567,-1.6578,-1.6577,-1.6596,-1.6606,-1.6616,-1.6626,-1.6625,-1.6636,-1.6635,-1.6638,-1.664,-1.6659,-1.6665,-1.6655,-1.6688,-1.6679,-1.6681,-1.6683,-1.6686,-1.6688,-1.6686,-1.6647,0,0,0,0,0,-1.657,-1.6582,-1.6592,-1.6608,-1.6613,-1.6619,-1.6626,-1.6627,-1.6637,-1.6641,-1.6648,-1.6658,-1.6671,-1.6679,-1.6691,-1.6712,-1.6715,-1.6722,-1.6724,-1.6726,-1.6728,-1.6741,-1.6744,-1.6709,-1.6709,-1.6709,0,0,-1.6577,-1.6585,-1.6592,-1.6609,-1.6616,-1.6629,-1.6622,-1.6635,-1.6645,-1.6643,-1.6661,-1.6667,-1.6678,-1.6698,-1.6708,-1.6703,-1.6739,-1.6728,-1.673,-1.673,-1.6743,-1.6746,-1.6749,-1.671,-1.671,-1.671,0,0,-1.6595,-1.6603,-1.6617,-1.6625,-1.6637,-1.6641,-1.6645,-1.6656,-1.666,-1.6678,-1.6677,-1.6689,-1.6711,-1.6719,-1.6727,-1.6751,-1.6749,-1.6756,-1.6767,-1.6779,-1.6782,-1.6784,-1.6793,-1.6797,-1.6758,-1.6758,-1.6758,0,-1.6602,-1.6621,-1.6624,-1.6639,-1.6646,-1.6646,-1.6661,-1.6669,-1.6684,-1.669,-1.6685,-1.6714,-1.6721,-1.6744,-1.675,-1.6756,-1.6761,-1.6753,-1.6781,-1.6784,-1.6786,-1.6795,-1.6798,-1.6758,-1.6758,-1.6758,-1.6758,0,-1.6629,-1.6643,-1.6653,-1.6668,-1.6677,-1.6692,-1.6698,-1.6707,-1.6709,-1.6714,-1.6733,-1.6743,-1.6758,-1.6764,-1.6765,-1.6787,-1.6784,-1.6781,-1.6771,-1.679,-1.6798,-1.6801,-1.6759,-1.6759,-1.6759,-1.6759,0,0,-1.6649,-1.6667,-1.6671,-1.6678,-1.6692,-1.6703,-1.6719,-1.6733,-1.6741,-1.6753,-1.6766,-1.6786,-1.6783,-1.6791,-1.6794,-1.6805,-1.6825,-1.68,-1.68,-1.6804,-1.6851,-1.6853,-1.6856,-1.6824,-1.6825,-1.6825,-1.685,0,-1.6669,-1.6695,-1.67,-1.6723,-1.6736,-1.6737,-1.6751,-1.6762,-1.6768,-1.678,-1.6787,-1.6801,-1.6796,-1.6801,-1.6812,-1.682,-1.6834,-1.6818,-1.6836,-1.6837,-1.6832,-1.686,-1.6862,-1.6885,-1.6853,-1.6853,-1.6854,0,-1.6695,-1.6707,-1.6732,-1.6746,-1.6751,-1.6763,-1.6778,-1.679,-1.6803,-1.6806,-1.6817,-1.6819,-1.6836,-1.6827,-1.6851,-1.6841,-1.6849,-1.6854,-1.6855,-1.6856,-1.6846,-1.6862,-1.6892,-1.6895,-1.6859,-1.6858,-1.6858,0,-1.6707,-1.673,-1.6748,-1.6754,-1.6771,-1.6779,-1.6787,-1.6799,-1.6808,-1.6821,-1.6827,-1.6843,-1.6851,-1.6863,-1.6869,-1.6862,-1.6893,-1.6885,-1.6897,-1.6897,-1.6902,-1.6901,-1.6933,-1.6909,-1.6909,-1.6908,-1.6908,0,-1.6728,-1.6743,-1.6754,-1.6764,-1.6782,-1.6788,-1.6806,-1.6813,-1.6824,-1.6837,-1.684,-1.6852,-1.686,-1.6874,-1.6879,-1.6899,-1.6902,-1.6906,-1.6907,-1.6905,-1.6905,-1.691,-1.6908,-1.6909,-1.6909,-1.6909,-1.6909,0,-1.6743,-1.6751,-1.6771,-1.6785,-1.679,-1.6802,-1.6815,-1.6826,-1.6833,-1.685,-1.6854,-1.6865,-1.6882,-1.689,-1.691,-1.6914,-1.6936,-1.6936,-1.6931,-1.6931,-1.6943,-1.6941,-1.6978,-1.6983,-1.6956,-1.6956,-1.6957,0,-1.6755,-1.6767,-1.6783,-1.6792,-1.68,-1.6815,-1.6824,-1.6832,-1.6842,-1.6858,-1.6868,-1.6885,-1.6898,-1.6925,-1.6935,-1.6952,-1.6952,-1.6964,-1.6954,-1.6953,-1.6952,-1.6951,-1.6952,-1.6965,-1.6965,-1.6966,-1.6966,0,-1.6776,-1.678,-1.6794,-1.681,-1.6821,-1.6834,-1.6846,-1.6854,-1.6863,-1.6875,-1.6892,-1.6903,-1.6925,-1.6941,-1.6959,-1.6967,-1.6968,-1.6969,-1.6973,-1.697,-1.6967,-1.6969,-1.6935,-1.6968,-1.6967,-1.6967,-1.6967,-1.6967,-1.679,-1.6801,-1.6815,-1.6831,-1.6841,-1.6853,-1.6865,-1.6874,-1.6888,-1.6906,-1.691,-1.6929,-1.6943,-1.6967,-1.6976,-1.6991,-1.6988,-1.6993,-1.6994,-1.6995,-1.6996,-1.6966,-1.6994,-1.6994,-1.6994,-1.6994,-1.6994,0,-1.6811,-1.6821,-1.6835,-1.6853,-1.6866,-1.6867,-1.6881,-1.6892,-1.6908,-1.6921,-1.6935,-1.6956,-1.6973,-1.6985,-1.7003,-1.7012,-1.7013,-1.7017,-1.7015,-1.7018,-1.6997,-1.6992,-1.7016,-1.7016,-1.7016,-1.7016,-1.7016,-1.7015,-1.6824,-1.6843,-1.6848,-1.6873,-1.6883,-1.69,-1.6909,-1.692,-1.6931,-1.6954,-1.6968,-1.6976,-1.699,-1.7009,-1.7025,-1.7028,-1.7034,-1.7037,-1.7041,-1.7021,-1.7019,-1.7017,-1.7012,-1.7039,-1.7039,-1.7059,-1.706,-1.706]},{"header":{"parameterUnit":"m.s-1","parameterCategory":1,"la1":30.2991,"la2":30.254,"lo1":-89.0895,"lo2":-89.0444,"dy":0.0017,"dx":0.0017,"nx":28,"ny":28,"refTime":"2024-04-07T03:00:00:Z","depth":0,"parameterNumber":3,"parameterNumberName":"V-component_of_WINDS"},"data":[0,0,0,0,0,0,0,0,0,0,0,0,0,0,0,0,0,0,0,0,0,0,0,0,0,0,0,0,0,0,0,0,0,0,0,0,0,0,0,0,0,0,0,0,0,0,0,0,0,0,0,0,0,0,0,0,0,0,5.1509,5.1508,0,5.1476,5.1475,5.1475,5.1389,5.1387,5.1385,5.1383,5.1352,5.1353,5.1353,0,0,0,0,0,0,0,0,0,0,0,0,0,5.1499,5.15,5.1509,5.1508,5.1508,5.1476,5.1475,5.1475,5.1389,5.1387,5.1384,5.1382,5.1351,5.1352,5.1354,0,0,0,0,0,0,0,0,0,0,0,0,0,5.1489,5.15,5.1509,5.1461,5.1456,5.1476,5.1475,5.1475,5.1389,5.1387,5.1384,5.1381,5.1351,5.1352,5.1354,5.1417,0,0,5.1358,5.1358,0,0,0,0,0,0,0,0,5.1489,5.1489,5.1469,5.1464,5.1459,5.1433,5.146,5.1456,5.139,5.1415,5.1383,5.138,5.1381,5.138,5.138,5.1416,5.1415,5.1358,5.1359,5.1359,5.136,0,0,0,0,0,0,0,5.149,5.149,5.1496,5.1468,5.1463,5.1442,5.1437,5.1459,5.1414,5.1413,5.1406,5.1403,5.1378,5.1379,5.1379,5.1414,5.1358,5.1359,5.136,5.136,5.15,5.1503,0,0,0,0,0,0,5.1497,5.1491,5.1497,5.1495,5.1468,5.1444,5.1439,5.1445,5.1414,5.1406,5.1406,5.14,5.1378,5.1377,5.1377,5.1449,5.1359,5.136,5.1361,5.1497,5.1501,5.1504,0,0,0,0,0,0,5.1498,5.1499,5.1498,5.1491,5.1489,5.1447,5.1454,5.1445,5.1446,5.1408,5.14,5.1415,5.1376,5.1375,5.1408,5.1447,5.1361,5.1362,5.1494,5.1498,5.1502,5.1594,0,0,0,0,0,0,5.1498,5.1499,5.1523,5.1492,5.149,5.1529,5.1457,5.1447,5.1448,5.1439,5.1414,5.1408,5.1374,5.1406,5.1409,5.1447,5.1363,5.149,5.1496,5.1501,5.1587,5.1601,5.1613,0,0,0,0,0,5.1498,5.155,5.1524,5.1525,5.1518,5.1531,5.153,5.1489,5.1452,5.1475,5.1451,5.1409,5.1442,5.141,5.1413,5.1452,5.1487,5.1494,5.1501,5.1582,5.1598,5.1612,0,0,0,0,0,0,5.1587,5.1546,5.1516,5.156,5.155,5.1517,5.1545,5.1508,5.1509,5.1501,5.145,5.1446,5.1485,5.1472,5.1437,5.1512,5.1458,5.1465,5.1519,5.1534,5.1547,5.1549,5.1364,0,0,0,0,0,5.1612,5.1625,5.1588,5.1631,5.1627,5.1587,5.1591,5.1561,5.1548,5.1543,5.1522,5.1512,5.152,5.1526,5.1532,5.1585,5.1578,5.1613,5.1626,5.1637,5.1643,5.167,5.1685,5.1525,5.1525,5.1525,0,0,5.1664,5.1643,5.1654,5.1649,5.1637,5.1652,5.1584,5.1603,5.1614,5.1546,5.1575,5.1559,5.1545,5.1588,5.1606,5.1578,5.1686,5.1645,5.1654,5.1655,5.1679,5.1694,5.1707,5.153,5.1529,5.1528,0,0,5.1765,5.1751,5.1784,5.1774,5.1757,5.1729,5.1738,5.171,5.1696,5.1725,5.1674,5.1687,5.1702,5.1693,5.1691,5.179,5.1751,5.1793,5.1859,5.1886,5.1899,5.191,5.1945,5.1958,5.18,5.1801,5.1801,0,5.1832,5.1852,5.1807,5.1829,5.1828,5.1766,5.18,5.1793,5.1779,5.178,5.1749,5.1766,5.1752,5.1792,5.1816,5.1817,5.1825,5.1796,5.1901,5.1911,5.1921,5.1953,5.1966,5.1806,5.1805,5.1805,5.1804,0,5.1934,5.195,5.1979,5.1966,5.1968,5.1997,5.1956,5.1964,5.1933,5.191,5.1939,5.192,5.1921,5.1928,5.1899,5.1964,5.1947,5.1909,5.1854,5.1942,5.1972,5.1984,5.1813,5.1811,5.181,5.1809,0,0,5.2091,5.2052,5.2064,5.2057,5.2034,5.2045,5.207,5.207,5.2078,5.207,5.2091,5.2105,5.2069,5.2067,5.2036,5.206,5.2139,5.2019,5.2017,5.2041,5.2209,5.2238,5.2253,5.2113,5.2115,5.2117,5.221,0,5.2187,5.2227,5.2187,5.2236,5.2249,5.2191,5.2213,5.2202,5.2181,5.2189,5.2166,5.2177,5.2129,5.2127,5.2148,5.2125,5.2172,5.2118,5.2132,5.2133,5.2136,5.2269,5.2299,5.2388,5.2222,5.2224,5.2225,0,5.2303,5.23,5.235,5.2323,5.2327,5.2348,5.2344,5.2353,5.2339,5.2322,5.2319,5.2281,5.2305,5.2252,5.2284,5.2248,5.2251,5.2241,5.2243,5.2243,5.2184,5.2271,5.2415,5.2429,5.2243,5.2242,5.224,0,5.2412,5.2421,5.2451,5.2448,5.2417,5.2433,5.2421,5.2404,5.2406,5.2403,5.2404,5.2405,5.2405,5.2406,5.237,5.2334,5.2407,5.235,5.2393,5.2394,5.2411,5.241,5.2557,5.2414,5.2414,5.2414,5.2413,0,5.2523,5.2556,5.25,5.2519,5.2554,5.2508,5.2544,5.2526,5.2512,5.2526,5.2477,5.2492,5.2443,5.2453,5.2425,5.2456,5.2457,5.2444,5.2436,5.2448,5.2449,5.2449,5.2442,5.2417,5.2416,5.2416,5.2415,0,5.265,5.2614,5.2644,5.2612,5.2605,5.2632,5.2605,5.2622,5.2597,5.2617,5.2619,5.2581,5.259,5.2554,5.2558,5.2539,5.2584,5.2566,5.2589,5.2583,5.2628,5.2624,5.2779,5.2797,5.2644,5.2645,5.2646,0,5.2723,5.2746,5.2717,5.2723,5.2713,5.2724,5.2725,5.2681,5.2685,5.2671,5.2689,5.2694,5.2696,5.2714,5.2687,5.269,5.2671,5.2725,5.2671,5.2682,5.2671,5.267,5.2672,5.2737,5.2738,5.274,5.2741,0,5.2855,5.2836,5.284,5.2838,5.2841,5.2838,5.2831,5.2839,5.2791,5.2799,5.2807,5.2808,5.2812,5.2817,5.2814,5.2803,5.2765,5.2759,5.2768,5.2781,5.2793,5.2787,5.2619,5.2755,5.2754,5.2753,5.2752,5.2751,5.2957,5.2975,5.2957,5.2963,5.2953,5.2948,5.2962,5.2939,5.2945,5.2943,5.2917,5.2931,5.2916,5.2908,5.29,5.291,5.2885,5.29,5.2903,5.2907,5.2915,5.2792,5.291,5.2909,5.2909,5.2908,5.2908,0,5.3087,5.3072,5.3078,5.307,5.3075,5.3037,5.3028,5.3035,5.3047,5.3036,5.3038,5.3048,5.3054,5.3027,5.3029,5.3043,5.3025,5.3045,5.3043,5.3041,5.2938,5.2929,5.3059,5.3059,5.3059,5.3059,5.3059,5.3059,5.3155,5.3183,5.3162,5.3185,5.3171,5.3183,5.3181,5.3176,5.3166,5.3179,5.3183,5.3166,5.3149,5.3149,5.3152,5.3144,5.3147,5.3173,5.3159,5.3063,5.3048,5.3034,5.3025,5.3174,5.3174,5.3261,5.3262,5.3263]}]]